Flag for Canada Weather past 2 weeks in Ottawa, Ontario, Canada

Now
3 °F

Passing clouds.


Feels Like: -9 °F
Forecast: -22 / 9 °F
Wind: 7 mph from West

Location: Ottawa Int'L. Ont.

Current Time: Feb 26, 2015 at 8:22:13 PM

Latest Report: Feb 26, 2015 at 7:00 PM


Visibility: 15 mi

Pressure: 30.19 "Hg

Humidity: 50%

Dew point: -11 °F

Location of OttawaLocation

Historic Weather in Ottawa — Graph

°F

Ottawa temperature yesterday

Maximum temperature yesterday: 18 °F (at 9:00 AM)
Minimum temperature yesterday: 3 °F (at 10:00 PM)
Average temperature yesterday: 12 °F

Past Weeks' High & Low Weather Summary

 TemperatureHumidityPressure
High25 °F (Feb 22, 1:00 PM)93% (Feb 22, 8:00 PM)30.47 "Hg (Feb 22, 8:00 PM)
Low-17 °F (Feb 13, 8:00 AM)40% (Feb 24, 9:00 PM)29.60 "Hg (Feb 25, 5:00 AM)
Average2 °F67%30.02 "Hg
* Reported Feb 11 7:00 PM — Feb 26 7:00 PM, Ottawa, Weather by CustomWeather, © 2015

Note: Actual official high and low records may vary slightly from our data, if they occured in-between our weather recording intervals... More about our weather records

Advertising

Ottawa weather history for previous 24 hours

 ConditionsComfort  
Time TempWeatherWind HumidityBarometerVisibility
7:00 PM
Thu, Feb 26
3 °FPassing clouds.7 mph50%30.19 "Hg15 mi
6:00 PM3 °FPartly cloudy.9 mph50%30.17 "Hg15 mi
5:00 PM9 °FBroken clouds.9 mph43%30.15 "Hg15 mi
4:00 PM9 °FBroken clouds.5 mph43%30.15 "Hg15 mi
3:00 PM9 °FBroken clouds.6 mph43%30.16 "Hg15 mi
2:00 PM9 °FPartly sunny.5 mph43%30.17 "Hg15 mi
1:00 PM7 °FPartly sunny.5 mph47%30.18 "Hg15 mi
12:00 PM5 °FScattered clouds.6 mph51%30.20 "Hg15 mi
11:00 AM5 °FScattered clouds.5 mph51%30.21 "Hg15 mi
10:00 AM1 °FScattered clouds.5 mph55%30.22 "Hg15 mi
9:00 AM-2 °FPartly sunny.6 mph65%30.21 "Hg15 mi
8:00 AM-4 °FPassing clouds.8 mph71%30.20 "Hg15 mi
7:00 AM-4 °FScattered clouds.7 mph65%30.17 "Hg15 mi
6:00 AM-4 °FPassing clouds.8 mph71%30.17 "Hg15 mi
5:00 AM-6 °FClear.3 mph70%30.18 "Hg15 mi
4:00 AM-8 °FClear.2 mph77%30.17 "Hg15 mi
3:00 AM-9 °FClear.2 mph77%30.16 "Hg15 mi
2:00 AM-8 °FClear.5 mph70%30.14 "Hg15 mi
1:00 AM-8 °FClear.3 mph64%30.13 "Hg15 mi
12:00 AM1 °FClear.6 mph55%30.11 "Hg15 mi
11:00 PM
Wed, Feb 25
3 °FClear.12 mph50%30.09 "Hg15 mi
10:00 PM3 °FClear.8 mph50%30.10 "Hg15 mi
9:00 PM5 °FClear.12 mph46%30.06 "Hg15 mi
8:00 PM7 °FClear.14 mph47%30.01 "Hg15 mi
Weather by CustomWeather, © 2015

See weather overviewHow to use our weather pages